{"data":{"norad_id":66398,"intl_designator":"2025-257U","name":"STARLINK-35642","alt_names":[],"object_type":"PAYLOAD","status":"ACTIVE","operator":null,"country":"US","launch_date":"2025-11-09","launch_site_code":"AFETR","launch_vehicle":null,"mission":null,"orbit_class":"UNKNOWN","rcs_meters":null,"size_class":null,"mass_kg":null,"dimensions":null,"purposes":["comms"],"wikipedia_slug":null,"has_3d_model":false,"image_url":null,"decayed_at":null,"tle_current":{"epoch":"2026-05-25T04:32:02.338080Z","epoch_age_seconds":59063,"freshness":"FRESH","line1":"1 66398U 25257U   26145.18891595  .00023228  00000+0  69617-3 0  9995","line2":"2 66398  53.1578 221.1373 0001740  77.7491 282.3707 15.34413377 31459","mean_motion":15.34413377,"eccentricity":0.000174,"inclination_deg":53.1578,"raan_deg":221.1373,"arg_perigee_deg":77.7491,"mean_anomaly_deg":282.3707,"bstar":0.00069617,"rev_number":3145,"period_min":93.846939917547,"perigee_km":461.47318194915,"apogee_km":463.85378051662,"semimajor_km":6840.8004812329,"source":"CELESTRAK","updated_at":"2026-05-25T13:38:21.204118Z"}}}